Date String (YYYY-MM-DD hh:mm:ss) UTC,Instrument flags,absolute air pressure of the measurement (hPa),sample flow rate (lpm),inlet stack bypass flow (lpm),air temperature of the measurement (°C),ambient temperature measured by the external sensor (°C),aerosol sample conditioner tube jacket temperature (°C),OPC LED temperature (°C),internal box temperature (°C),relative humidity of the measurement (%),span deviation,mass concentration of particles derived from Lorenz-Mie calculation of OPC scattering (μg/m³),mass concentration of particles derived from Lorenz-Mie calculation of OPC scattering (μg/m³),mass concentration of particles derived from Lorenz-Mie calculation of OPC scattering (μg/m³)
DateTimeUTC,F1_M11,P_M11,Q1_M11,Q2_M11,T1_M11,T2_M11,T3_M11,T4_M11,T5_M11,U1_M11,ZSPAN_M11,X0_M11,X2_M11,X1_M11
2024-06-13 12:00:00,SystemResetWarning,0829.7,5.00,000.00,030.3,029.6,000.0,038.5,032.0,016.1,0000.0,0011.67,0004.81,0004.10
2024-06-13 12:01:00,SystemResetWarning,0829.7,5.00,000.00,030.3,029.7,000.0,038.5,032.0,016.0,0000.0,0011.31,0004.77,0004.10
2024-06-13 12:02:00,SystemResetWarning,0829.7,5.00,000.00,030.3,029.7,000.0,038.5,032.0,016.0,0000.0,0010.79,0004.75,0004.11
2024-06-13 12:03:00,SystemResetWarning,0829.7,5.00,000.00,030.4,029.8,000.0,038.6,032.1,015.9,0000.0,0010.36,0004.74,0004.12
2024-06-13 12:04:00,SystemResetWarning,0829.7,5.00,000.00,030.4,029.8,000.0,038.6,032.1,015.8,0000.0,0011.18,0004.74,0004.12
2024-06-13 12:05:00,SystemResetWarning,0829.7,5.00,000.00,030.4,029.9,000.0,038.6,032.1,015.7,0000.0,0011.32,0004.71,0004.10
2024-06-13 12:06:00,SystemResetWarning,0829.8,5.00,000.00,030.5,029.9,000.0,038.7,032.2,015.7,0000.0,0011.83,0004.69,0004.09
2024-06-13 12:07:00,SystemResetWarning,0829.8,5.00,000.00,030.5,029.9,000.0,038.7,032.2,015.8,0000.0,0012.17,0004.69,0004.08
2024-06-13 12:08:00,SystemResetWarning,0829.8,5.01,000.00,030.5,030.0,000.0,038.7,032.2,015.9,0000.0,0012.62,0004.71,0004.08
2024-06-13 12:09:00,SystemResetWarning,0829.8,5.01,000.00,030.6,030.0,000.0,038.7,032.3,015.9,0000.0,0012.49,0004.72,0004.09
2024-06-13 12:10:00,SystemResetWarning,0829.8,4.99,000.00,030.6,030.1,000.0,038.8,032.3,015.8,0000.0,0013.32,0004.73,0004.09
2024-06-13 12:11:00,SystemResetWarning,0829.8,5.00,000.00,030.6,030.1,000.0,038.8,032.3,015.6,0000.0,0013.87,0004.77,0004.10
2024-06-13 12:12:00,SystemResetWarning,0829.8,5.00,000.00,030.7,030.1,000.0,038.8,032.4,015.7,0000.0,0014.27,0004.79,0004.11
2024-06-13 12:13:00,SystemResetWarning,0829.9,5.00,000.00,030.7,030.1,000.0,038.8,032.4,015.6,0000.0,0013.85,0004.83,0004.11
2024-06-13 12:14:00,SystemResetWarning,0829.9,5.00,000.00,030.7,030.2,000.0,038.9,032.4,015.5,0000.0,0014.00,0004.88,0004.12
2024-06-13 12:15:00,SystemResetWarning,0829.9,5.01,000.00,030.8,030.2,000.0,038.9,032.4,015.5,0000.0,0013.46,0004.86,0004.12
2024-06-13 12:16:00,SystemResetWarning,0829.9,5.00,000.00,030.8,030.0,000.0,038.9,032.3,015.5,0000.0,0012.99,0004.85,0004.12
2024-06-13 12:17:00,SystemResetWarning,0829.8,5.00,000.00,030.5,027.8,000.0,039.0,031.3,015.7,0000.0,0012.34,0004.86,0004.12
2024-06-13 12:18:00,SystemResetWarning,0829.7,5.02,000.00,030.1,027.1,000.0,039.0,030.9,015.9,0000.0,0012.24,0004.87,0004.12
2024-06-13 12:19:00,SystemResetWarning,0829.7,5.00,000.00,030.0,027.4,000.0,038.9,030.9,016.0,0000.0,0011.58,0004.89,0004.12
2024-06-13 12:20:00,SystemResetWarning,0829.8,5.00,000.00,030.0,027.7,000.0,038.8,031.2,016.0,0000.0,0011.44,0004.85,0004.11
2024-06-13 12:21:00,SystemResetWarning,0829.8,5.00,000.00,030.0,028.1,000.0,038.7,031.4,015.9,0000.0,0010.79,0004.81,0004.09
2024-06-13 12:22:00,SystemResetWarning,0829.8,5.00,000.00,030.0,028.4,000.0,038.6,031.5,015.8,0000.0,0010.23,0004.76,0004.07
2024-06-13 12:23:00,SystemResetWarning,0829.8,5.00,000.00,030.0,028.7,000.0,038.6,031.6,015.8,0000.0,0009.43,0004.72,0004.04
2024-06-13 12:24:00,SystemResetWarning,0829.8,5.00,000.00,030.1,028.9,000.0,038.6,031.7,015.8,0000.0,0009.47,0004.71,0004.01
2024-06-13 12:25:00,SystemResetWarning,0829.8,4.99,000.00,030.1,029.1,000.0,038.6,031.8,015.9,0000.0,0009.38,0004.65,0003.99
2024-06-13 12:26:00,SystemResetWarning,0829.9,5.00,000.00,030.2,029.2,000.0,038.6,031.8,015.8,0000.0,0009.05,0004.61,0003.98
2024-06-13 12:27:00,SystemResetWarning,0829.9,5.00,000.00,030.2,029.3,000.0,038.5,031.9,015.7,0000.0,0008.55,0004.63,0003.96
2024-06-13 12:28:00,SystemResetWarning,0829.9,5.00,000.00,030.2,029.5,000.0,038.5,031.9,015.7,0000.0,0008.77,0004.61,0003.94
2024-06-13 12:29:00,SystemResetWarning,0829.9,5.00,000.00,030.3,029.6,000.0,038.6,032.0,015.6,0000.0,0008.84,0004.63,0003.94
2024-06-13 12:30:00,SystemResetWarning,0829.9,5.00,000.00,030.3,029.6,000.0,038.6,032.0,015.6,0000.0,0008.81,0004.62,0003.93
2024-06-13 12:31:00,SystemResetWarning,0829.9,5.00,000.00,030.4,029.7,000.0,038.6,032.1,015.6,0000.0,0008.78,0004.58,0003.91
2024-06-13 12:32:00,SystemResetWarning,0830.0,5.00,000.00,030.4,029.8,000.0,038.6,032.1,015.7,0000.0,0008.77,0004.57,0003.91
2024-06-13 12:33:00,SystemResetWarning,0830.0,5.01,000.00,030.4,029.8,000.0,038.6,032.2,015.7,0000.0,0009.20,0004.57,0003.90
2024-06-13 12:34:00,SystemResetWarning,0830.0,4.99,000.00,030.5,029.9,000.0,038.7,032.2,015.7,0000.0,0009.51,0004.59,0003.90
2024-06-13 12:35:00,SystemResetWarning,0830.0,5.00,000.00,030.5,029.9,000.0,038.7,032.2,015.7,0000.0,0009.66,0004.62,0003.90
2024-06-13 12:36:00,SystemResetWarning,0830.0,5.00,000.00,030.6,030.0,000.0,038.7,032.2,015.6,0000.0,0009.95,0004.62,0003.89
2024-06-13 12:37:00,SystemResetWarning,0830.0,4.99,000.00,030.6,029.7,000.0,038.7,032.1,015.6,0000.0,0010.56,0004.64,0003.89
2024-06-13 12:38:00,SystemResetWarning,0829.9,5.00,000.00,030.3,027.4,000.0,038.8,031.0,015.9,0000.0,0010.93,0004.62,0003.89
2024-06-13 12:39:00,SystemResetWarning,0829.8,5.02,000.00,029.8,026.1,000.0,038.8,030.3,016.3,0000.0,0010.95,0004.63,0003.90
2024-06-13 12:40:00,SystemResetWarning,0829.9,4.99,000.00,029.6,026.5,000.0,038.7,030.4,016.5,0000.0,0011.09,0004.65,0003.91
2024-06-13 12:41:00,SystemResetWarning,0829.9,5.00,000.00,029.6,027.0,000.0,038.5,030.6,017.0,0000.0,0011.40,0004.63,0003.90
2024-06-13 12:42:00,SystemResetWarning,0830.0,5.00,000.00,029.6,027.4,000.0,038.4,030.8,016.9,0000.0,0012.18,0004.68,0003.90
2024-06-13 12:43:00,SystemResetWarning,0830.0,5.00,000.00,029.6,027.8,000.0,038.4,031.0,016.3,0000.0,0012.69,0004.69,0003.90
2024-06-13 12:44:00,SystemResetWarning,0830.0,5.00,000.00,029.6,028.1,000.0,038.3,031.2,016.4,0000.0,0012.41,0004.71,0003.91
2024-06-13 12:45:00,SystemResetWarning,0830.0,5.00,000.00,029.7,028.4,000.0,038.3,031.3,017.0,0000.0,0012.32,0004.75,0003.92
2024-06-13 12:46:00,SystemResetWarning,0830.0,5.00,000.00,029.7,028.6,000.0,038.2,031.4,017.7,0000.0,0012.50,0004.74,0003.92
2024-06-13 12:47:00,SystemResetWarning,0830.0,5.01,000.00,029.8,028.8,000.0,038.2,031.5,017.4,0000.0,0013.35,0004.74,0003.92
2024-06-13 12:48:00,SystemResetWarning,0830.0,5.00,000.00,029.8,028.9,000.0,038.2,031.5,016.4,0000.0,0013.38,0004.78,0003.92
2024-06-13 12:49:00,SystemResetWarning,0830.0,5.00,000.00,029.9,029.1,000.0,038.2,031.6,016.6,0000.0,0013.24,0004.79,0003.93
2024-06-13 12:50:00,SystemResetWarning,0830.0,5.00,000.00,029.9,029.2,000.0,038.2,031.7,016.5,0000.0,0013.26,0004.76,0003.92
2024-06-13 12:51:00,SystemResetWarning,0830.0,5.00,000.00,030.0,029.3,000.0,038.2,031.7,016.5,0000.0,0014.01,0004.73,0003.90
2024-06-13 12:52:00,SystemResetWarning,0830.1,5.00,000.00,030.0,029.4,000.0,038.2,031.8,016.4,0000.0,0013.76,0004.73,0003.91
2024-06-13 12:53:00,SystemResetWarning,0830.0,5.00,000.00,030.1,029.5,000.0,038.3,031.8,016.3,0000.0,0013.00,0004.69,0003.91
2024-06-13 12:54:00,SystemResetWarning,0830.0,5.00,000.00,030.1,029.5,000.0,038.3,031.9,016.6,0000.0,0012.62,0004.67,0003.89
2024-06-13 12:55:00,SystemResetWarning,0830.0,5.00,000.00,030.2,029.6,000.0,038.3,031.9,018.7,0000.0,0013.06,0004.63,0003.88
2024-06-13 12:56:00,SystemResetWarning,0830.0,5.00,000.00,030.2,029.7,000.0,038.3,032.0,018.0,0000.0,0013.07,0004.58,0003.88
2024-06-13 12:57:00,SystemResetWarning,0830.0,5.00,000.00,030.3,029.7,000.0,038.4,032.0,018.5,0000.0,0013.66,0004.59,0003.88
2024-06-13 12:58:00,SystemResetWarning,0830.1,4.99,000.00,030.3,029.8,000.0,038.4,032.0,020.4,0000.0,0012.91,0004.58,0003.88
2024-06-13 12:59:00,SystemResetWarning,0830.1,4.99,000.00,030.3,029.8,000.0,038.4,032.1,019.7,0000.0,0012.50,0004.54,0003.88
